EW7827 Weather Reports


time (UTC)temp
C
wind
direction
speed
KPH
gust
KPH
rain 1hr
cm
rain 24hr
cm
rain mn
cm
humidity
%
barometer
mb
20260508013520 18 180 4.8 11.3 0.00 0.00 0.00 51 1012.3
20260508012520 18 180 4.8 9.7 0.00 0.00 0.00 51 1012.3
20260508011520 18 158 4.8 9.7 0.00 0.00 0.00 51 1012.2
20260508010520 18 180 3.2 9.7 0.00 0.00 0.00 51 1012.1
20260508005520 18 180 4.8 9.7 0.00 0.00 0.00 49 1012.2
20260508004520 18 180 4.8 8.0 0.00 0.00 0.00 48 1012.2
20260508003520 19 158 3.2 8.0 0.00 0.00 0.00 47 1012.1
20260508002602 19 203 3.2 8.0 0.00 0.00 0.00 46 1012.1
20260508001541 20 180 4.8 9.7 0.00 0.00 0.00 44 1012.2
20260508000520 20 203 4.8 11.3 0.00 0.00 0.00 44 1012.2
20260507235541 20 180 6.4 12.9 0.00 0.00 0.00 43 1012.3
20260507234520 20 180 3.2 6.4 0.00 0.00 0.00 43 1012.4
20260507233520 20 203 4.8 12.9 0.00 0.00 0.00 43 1012.6
20260507232520 20 203 6.4 14.5 0.00 0.00 0.00 44 1012.6
20260507231522 20 225 8.0 16.1 0.00 0.00 0.00 43 1012.6
20260507230520 20 203 6.4 14.5 0.00 0.00 0.00 44 1012.7
20260507225540 20 203 6.4 17.7 0.00 0.00 0.00 44 1012.7
20260507224522 20 203 8.0 20.9 0.00 0.00 0.00 42 1012.8
20260507223522 20 270 4.8 12.9 0.00 0.00 0.00 45 1012.9
20260507222520 20 180 8.0 16.1 0.00 0.00 0.00 43 1013.0
20260507221520 20 225 6.4 16.1 0.00 0.00 0.00 42 1013.1
20260507220540 20 225 6.4 25.7 0.00 0.00 0.00 44 1013.2
20260507215522 20 270 6.4 27.4 0.00 0.00 0.00 42 1013.1
20260507214522 21 180 8.0 29.0 0.00 0.00 0.00 42 1013.3
20260507213542 20 203 8.0 16.1 0.00 0.00 0.00 44 1013.4
20260507212522 20 203 6.4 20.9 0.00 0.00 0.00 45 1013.5
20260507211542 20 225 9.7 22.5 0.00 0.00 0.00 44 1013.7
20260507210522 20 158 4.8 14.5 0.00 0.00 0.00 44 1013.8
20260507205522 20 225 8.0 19.3 0.00 0.00 0.00 45 1014.0
20260507204522 20 203 9.7 22.5 0.00 0.00 0.00 46 1014.3
20260507203542 20 270 8.0 22.5 0.00 0.00 0.00 45 1014.5
20260507202542 20 203 8.0 22.5 0.00 0.00 0.00 46 1014.7
20260507201522 20 203 6.4 20.9 0.00 0.00 0.00 48 1014.9
20260507200522 19 203 8.0 20.9 0.00 0.00 0.00 47 1015.0
20260507195522 18 225 9.7 24.1 0.00 0.00 0.00 49 1015.0
20260507194521 18 203 11.3 22.5 0.00 0.00 0.00 48 1015.2
20260507193521 18 180 6.4 24.1 0.00 0.00 0.00 51 1015.4
20260507192522 18 135 9.7 20.9 0.00 0.00 0.00 50 1015.4
20260507191522 18 225 4.8 14.5 0.00 0.00 0.00 50 1015.5
20260507190522 18 180 8.0 17.7 0.00 0.00 0.00 51 1015.7
20260507185522 18 225 8.0 20.9 0.00 0.00 0.00 51 1015.9
20260507184522 17 203 9.7 25.7 0.00 0.00 0.00 53 1016.1
20260507183542 17 180 6.4 19.3 0.00 0.00 0.00 54 1016.2
20260507182542 17 203 6.4 16.1 0.00 0.00 0.00 55 1016.4
20260507181521 17 203 8.0 30.6 0.00 0.00 0.00 53 1016.5
20260507180522 17 225 8.0 27.4 0.00 0.00 0.00 54 1016.5
20260507175521 17 203 9.7 24.1 0.00 0.00 0.00 53 1016.7
20260507174522 17 203 6.4 20.9 0.00 0.00 0.00 53 1016.9
20260507173521 17 203 9.7 27.4 0.00 0.00 0.00 54 1017.1
20260507172541 17 225 8.0 19.3 0.00 0.00 0.00 55 1017.1
20260507171521 17 293 6.4 16.1 0.00 0.00 0.00 55 1017.3
20260507170521 16 180 9.7 24.1 0.00 0.00 0.00 54 1017.3
20260507165522 17 293 8.0 20.9 0.00 0.00 0.00 55 1017.6
20260507164541 16 293 6.4 19.3 0.00 0.00 0.00 58 1017.7
20260507163521 16 203 6.4 22.5 0.00 0.00 0.00 57 1017.7
20260507162521 16 203 11.3 29.0 0.00 0.00 0.00 57 1017.8
20260507161521 16 225 6.4 19.3 0.00 0.00 0.00 57 1017.9
20260507160522 16 180 6.4 17.7 0.00 0.00 0.00 57 1017.9
20260507155521 16 203 6.4 14.5 0.00 0.00 0.00 59 1018.1
20260507154521 15 225 6.4 20.9 0.00 0.00 0.00 60 1018.1
20260507153521 15 225 8.0 20.9 0.00 0.00 0.00 62 1018.2
20260507152521 15 203 6.4 16.1 0.00 0.00 0.00 61 1018.3
20260507151521 15 203 6.4 19.3 0.00 0.00 0.00 61 1018.3
20260507150521 15 180 3.2 6.4 0.00 0.00 0.00 63 1018.5
20260507145521 14 203 4.8 14.5 0.00 0.00 0.00 62 1018.5
20260507144521 14 203 6.4 16.1 0.00 0.00 0.00 63 1018.5
20260507143521 13 293 4.8 14.5 0.00 0.00 0.00 64 1018.6
20260507142522 13 203 8.0 17.7 0.00 0.00 0.00 65 1018.6
20260507141521 13 293 1.6 8.0 0.00 0.00 0.00 67 1018.5
20260507140521 12 203 6.4 12.9 0.00 0.00 0.00 68 1018.8
20260507135521 12 270 4.8 9.7 0.00 0.00 0.00 68 1018.9
20260507134521 12 203 6.4 14.5 0.00 0.00 0.00 69 1018.8
20260507133521 12 180 3.2 12.9 0.00 0.00 0.00 72 1018.9
20260507132521 11 203 4.8 8.0 0.00 0.00 0.00 71 1019.0
20260507131521 11 158 3.2 11.3 0.00 0.00 0.00 73 1018.9
20260507130521 10 225 3.2 11.3 0.00 0.00 0.00 75 1019.1
20260507125521 10 180 3.2 9.7 0.00 0.00 0.00 77 1019.1
20260507124521 9 180 3.2 6.4 0.00 0.00 0.00 78 1019.1
20260507123521 8 180 3.2 4.8 0.00 0.00 0.00 79 1018.9
20260507122520 8 158 3.2 8.0 0.00 0.00 0.00 79 1018.9
20260507121601 7 180 4.8 9.7 0.00 0.00 0.00 80 1018.8
20260507120521 7 180 3.2 8.0 0.00 0.00 0.00 81 1019.0
20260507115541 6 180 1.6 4.8 0.00 0.00 0.00 82 1018.8
20260507114520 6 180 3.2 4.8 0.00 0.00 0.00 82 1018.8
20260507113521 6 180 1.6 4.8 0.00 0.00 0.00 82 1018.7
20260507112521 6 180 1.6 4.8 0.00 0.00 0.00 82 1018.6
20260507111521 6 180 1.6 4.8 0.00 0.00 0.00 81 1018.6
20260507110521 6 180 3.2 3.2 0.00 0.00 0.00 81 1018.6
20260507105521 6 180 1.6 4.8 0.00 0.00 0.00 80 1018.6
20260507104521 6 180 1.6 3.2 0.00 0.00 0.00 80 1018.5
20260507103521 6 180 1.6 3.2 0.00 0.00 0.00 79 1018.6
20260507102521 6 180 1.6 3.2 0.00 0.00 0.00 78 1018.7
20260507101521 6 180 1.6 3.2 0.00 0.00 0.00 76 1018.7
20260507100521 7 180 1.6 3.2 0.00 0.00 0.00 74 1018.7
20260507095520 7 180 1.6 3.2 0.00 0.00 0.00 74 1018.8
20260507094540 7 180 1.6 4.8 0.00 0.00 0.00 74 1018.8
20260507093520 7 180 1.6 3.2 0.00 0.00 0.00 74 1018.9
20260507092521 6 180 1.6 3.2 0.00 0.00 0.00 74 1018.9
20260507091521 6 180 3.2 4.8 0.00 0.00 0.00 76 1018.9
20260507090520 6 315 1.6 3.2 0.00 0.00 0.00 77 1019.0
20260507085520 6 315 1.6 3.2 0.00 0.00 0.00 77 1019.0
20260507084522 6 315 1.6 1.6 0.00 0.00 0.00 77 1019.0
20260507083520 6 315 1.6 3.2 0.00 0.00 0.00 77 1019.0
20260507082520 6 315 1.6 3.2 0.00 0.00 0.00 76 1019.0
20260507081542 7 315 1.6 3.2 0.00 0.00 0.00 75 1019.0
20260507080520 7 315 1.6 3.2 0.00 0.00 0.00 74 1019.0
20260507075541 7 315 1.6 3.2 0.00 0.00 0.00 73 1018.9
20260507074522 7 315 1.6 3.2 0.00 0.00 0.00 72 1019.1
20260507073522 7 315 1.6 1.6 0.00 0.00 0.00 70 1019.1
20260507072522 7 315 1.6 1.6 0.00 0.00 0.00 70 1019.2
20260507071520 7 0.0 1.6 0.00 0.00 0.00 71 1019.2
20260507070522 8 315 1.6 3.2 0.00 0.00 0.00 71 1019.3
20260507065522 8 315 1.6 1.6 0.00 0.03 0.00 72 1019.5
20260507064520 8 0.0 0.0 0.00 0.03 0.00 72 1019.6
20260507063602 8 0.0 0.0 0.00 0.03 0.00 72 1019.6
20260507062522 8 0.0 0.0 0.00 0.03 0.00 72 1019.7
20260507061522 8 0.0 0.0 0.00 0.03 0.00 74 1019.6
20260507060522 7 0.0 0.0 0.00 0.03 0.00 73 1019.6
20260507055522 8 315 1.6 1.6 0.00 0.03 0.00 75 1019.5
20260507054522 7 0.0 1.6 0.00 0.03 0.00 74 1019.6
20260507053522 7 0.0 1.6 0.00 0.03 0.00 74 1019.7
20260507052522 7 315 1.6 1.6 0.00 0.03 0.00 74 1019.7
20260507051522 7 0.0 1.6 0.00 0.03 0.00 75 1019.7
20260507050542 7 315 1.6 3.2 0.00 0.03 0.00 75 1019.6
20260507045541 7 315 1.6 1.6 0.00 0.03 0.03 74 1019.7
20260507044521 7 315 1.6 1.6 0.00 0.03 0.03 74 1019.7
20260507043521 7 315 1.6 3.2 0.00 0.03 0.03 74 1019.7
20260507042601 8 315 1.6 3.2 0.00 0.03 0.03 73 1019.7
20260507041521 8 315 1.6 3.2 0.00 0.03 0.03 73 1019.5
20260507040521 7 315 1.6 3.2 0.00 0.03 0.03 71 1019.7
20260507035521 8 0.0 1.6 0.00 0.03 0.03 70 1019.8
20260507034541 8 0.0 0.0 0.00 0.03 0.03 68 1019.9
20260507033521 8 315 1.6 1.6 0.00 0.03 0.03 68 1019.8
20260507032521 8 315 1.6 3.2 0.00 0.03 0.03 66 1019.7
20260507031521 8 315 1.6 1.6 0.00 0.03 0.03 64 1019.6
20260507030521 8 0.0 0.0 0.00 0.03 0.03 64 1019.6
20260507025521 8 0.0 0.0 0.00 0.03 0.03 63 1019.7
20260507024541 9 0.0 0.0 0.00 0.03 0.03 62 1019.6
20260507023601 9 0.0 0.0 0.00 0.03 0.03 59 1019.5
20260507022521 10 0.0 0.0 0.00 0.03 0.03 58 1019.4
20260507021541 10 0.0 0.0 0.00 0.03 0.03 56 1019.4
20260507020521 10 0.0 0.0 0.00 0.03 0.03 55 1019.2
20260507015521 10 0.0 0.0 0.00 0.03 0.03 53 1019.2
20260507014521 11 0.0 1.6 0.00 0.03 0.03 52 1019.2